DW5490 Weather Reports


time (UTC)temp
F
wind
direction
speed
knots
gust
knots
rain 1hr
in
rain 24hr
in
rain mn
in
humidity
%
barometer
mb
20260505064540 51 240 4.3 8.7 0.00 0.00 0.00 85 1010.7
20260505063011 51 229 2.6 5.2 0.00 0.00 0.00 85 1010.6
20260505061546 51 245 4.3 7.8 0.00 0.00 0.00 84 1010.7
20260505060039 52 253 3.5 9.6 0.00 0.00 0.00 82 1010.7
20260505054552 52 245 3.5 7.8 0.00 0.00 0.00 82 1010.7
20260505053053 52 252 3.5 6.1 0.00 0.00 0.00 81 1010.7
20260505051538 52 246 3.5 9.6 0.00 0.00 0.00 80 1010.7
20260505041536 53 263 5.2 9.6 0.00 0.00 0.00 78 1010.9
20260505040019 53 267 4.3 9.6 0.00 0.00 0.00 78 1010.9
20260505034506 53 230 5.2 9.6 0.00 0.00 0.00 77 1010.7
20260505033110 53 240 4.3 12.2 0.00 0.00 0.00 76 1010.7
20260505031558 54 222 6.1 13.0 0.00 0.00 0.00 76 1010.7
20260505030106 54 246 4.3 10.4 0.00 0.00 0.00 75 1010.9
20260505024521 54 232 4.3 10.4 0.00 0.00 0.00 73 1011.0
20260505023028 55 220 3.5 10.4 0.00 0.00 0.00 71 1010.9
20260505021545 55 216 5.2 10.4 0.00 0.00 0.00 70 1010.9
20260505020035 56 224 4.3 8.7 0.00 0.00 0.00 68 1010.9
20260505014536 56 243 5.2 10.4 0.00 0.00 0.00 66 1010.8
20260505013036 56 258 4.3 13.0 0.00 0.00 0.00 64 1010.7
20260505011551 57 242 5.2 11.3 0.00 0.00 0.00 62 1010.5
20260505010029 57 236 3.5 7.0 0.00 0.00 0.00 61 1010.2
20260505004604 58 224 5.2 9.6 0.00 0.00 0.00 59 1010.0
20260505003101 59 241 7.0 12.2 0.00 0.00 0.00 57 1009.6
20260505001604 60 187 6.1 13.0 0.00 0.00 0.00 56 1009.1
20260505000100 60 201 7.8 13.0 0.00 0.00 0.00 54 1008.9
20260504234509 61 260 7.8 13.9 0.00 0.00 0.00 54 1008.9
20260504233023 61 213 6.1 13.9 0.00 0.00 0.00 53 1008.6
20260504231528 63 182 4.3 12.2 0.00 0.00 0.00 52 1008.2
20260504230016 64 267 3.5 17.4 0.00 0.00 0.00 50 1007.9
20260504224504 65 209 6.1 17.4 0.00 0.00 0.00 48 1007.7
20260504223114 66 166 6.1 15.6 0.00 0.00 0.00 47 1007.5
20260504221506 66 201 11.3 22.6 0.00 0.00 0.00 44 1007.4
20260504220124 67 228 10.4 20.0 0.00 0.00 0.00 43 1007.3
20260504214600 67 215 10.4 17.4 0.00 0.00 0.00 41 1007.4
20260504213100 68 188 11.3 20.9 0.00 0.00 0.00 40 1007.2
20260504211551 69 213 6.1 13.0 0.00 0.00 0.00 38 1007.1
20260504210055 70 259 7.0 20.9 0.00 0.00 0.00 36 1007.1
20260504204610 69 238 7.8 19.1 0.00 0.00 0.00 35 1007.1
20260504203058 70 149 6.1 13.0 0.00 0.00 0.00 34 1007.1
20260504201537 70 262 5.2 15.6 0.00 0.00 0.00 34 1007.1
20260504200034 70 231 5.2 13.0 0.00 0.00 0.00 34 1007.1
20260504194614 70 229 8.7 18.2 0.00 0.00 0.00 33 1007.3
20260504193001 70 200 11.3 19.1 0.00 0.00 0.00 33 1007.3
20260504191557 70 266 5.2 22.6 0.00 0.00 0.00 33 1007.2
20260504190100 70 275 7.8 18.2 0.00 0.00 0.00 34 1007.4
20260504184551 69 223 7.0 17.4 0.00 0.00 0.00 34 1007.5
20260504183005 70 173 7.0 17.4 0.00 0.00 0.00 33 1007.7
20260504181509 70 256 7.8 18.2 0.00 0.00 0.00 33 1007.8
20260504180058 69 252 8.7 15.6 0.00 0.00 0.00 33 1007.9
20260504174538 69 252 11.3 19.1 0.00 0.00 0.00 33 1007.9
20260504173033 68 301 8.7 17.4 0.00 0.00 0.00 33 1008.0
20260504171535 67 291 7.0 22.6 0.00 0.00 0.00 34 1007.9
20260504081522 47 232 0.9 4.3 0.00 0.00 0.00 58 1010.7